Regional Weather Roundup
Issued by NWS Boston, MA

Home | Current Version | Previous Version | Text Only | Print | Product List | Glossary On
Versions: 1 2 3 4 5 6 7 8 9 10 11 12 13 14 15 16 17 18 19 20 21 22 23 24 25 26 27 28 29 30 31 32 33 34 35 36 37 38 39 40 41 42 43 44 45 46 47 48 49 50
000
ASUS41 KBOX 032310
RWRBOX

REGIONAL WEATHER ROUNDUP
NATIONAL WEATHER SERVICE TAUNTON MA
700 PM EDT THU SEP 03 2015

NOTE:  "FAIR" INDICATES FEW OR NO CLOUDS BELOW 12,000 FEET WITH NO
SIGNIFICANT WEATHER AND/OR OBSTRUCTIONS TO VISIBILITY.  THE FOLLOWING
OBSERVATION LOCATIONS DO NOT REPORT PRESENT WEATHER...PROVINCETOWN...
SMITHFIELD...BLOCK ISLAND...KEENE...AND OXFORD.

MAZALL-040000-
EASTERN MASSACHUSETTS

CITY           SKY/WX    TMP DP  RH WIND       PRES   REMARKS
BOSTON         CLOUDY    74  66  76 E5        29.85
BEVERLY        CLOUDY    74  64  71 E3        29.86R
LAWRENCE       CLOUDY    80  66  62 CALM      29.88R
BEDFORD        CLOUDY    80  64  58 SE5       29.85R
BLUE HILL        N/A     77  65  66 E7        29.87S
NORWOOD        CLOUDY    78  68  71 CALM      29.84S
MARSHFIELD     MOCLDY    73  70  88 CALM      29.87S
PLYMOUTH       MOCLDY    74  67  78 E3        29.86S
TAUNTON        MOCLDY    77  69  76 SE3       29.84S
NEW BEDFORD    MOCLDY    78  70  76 CALM      29.84S
$$

MAZALL-040000-
CAPE COD AND THE ISLANDS

CITY           SKY/WX    TMP DP  RH WIND       PRES   REMARKS
FALMOUTH       PTCLDY    75  68  78 CALM      29.86S
HYANNIS        PTCLDY    74  68  81 CALM      29.85S
CHATHAM        PTCLDY    74  73  97 CALM      29.87R FOG
PROVINCETOWN     N/A     72  63  73 CALM      29.86S
NANTUCKET      PTCLDY    73  70  90 W5        29.86R
MARTHAS VNYRD  PTCLDY    75  71  87 SW3       29.86R FOG
$$

MAZALL-040000-
CENTRAL AND WESTERN MASSACHUSETTS

CITY           SKY/WX    TMP DP  RH WIND       PRES   REMARKS
WORCESTER      CLOUDY    80  64  58 S3        29.89S
FITCHBURG      CLOUDY    83  66  56 N5        29.86R
ORANGE         CLOUDY    78  69  73 NW7       29.87S
SPRINGFIELD    CLOUDY    80  69  68 N7        29.84R
WESTFIELD      CLOUDY    81  67  62 N12       29.85R
NORTH ADAMS    CLOUDY    77  70  79 SW3       29.89S
PITTSFIELD     CLOUDY    78  67  68 CALM      29.90R
$$

RIZALL-040000-
RHODE ISLAND

CITY           SKY/WX    TMP DP  RH WIND       PRES   REMARKS
PROVIDENCE     MOCLDY    80  69  69 SE3       29.85S
NEWPORT        PTCLDY    76  71  85 S6        29.85S HAZE
BLOCK ISLAND   CLEAR     75  73  94 SW8       29.86S
SMITHFIELD     CLOUDY    75  68  78 E6        29.86S
WESTERLY       PTCLDY    79  71  76 S5        29.85S
$$

CTZALL-040000-
CONNECTICUT

CITY           SKY/WX    TMP DP  RH WIND       PRES   REMARKS
BRADLEY INTL   CLOUDY    83  69  62 NW3       29.83S
HARTFORD       MOCLDY    86  65  49 N5        29.82F
BRIDGEPORT     MOCLDY    85  64  49 CALM      29.83S
DANBURY        PTCLDY    84  57  39 CALM      29.86S
GROTON         PTCLDY    77  73  87 SE6       29.84S
NEW HAVEN      PTCLDY    83  63  50 CALM      29.83F
CHESTER        NOT AVBL
MERIDEN        PTCLDY    82  64  54 CALM      29.83S
WILLIMANTIC    MOCLDY    84  68  58 SE6       29.84S
OXFORD         CLEAR     82  66  57 CALM      29.89S
$$

MEZ002-015-021-024-NHZ003-005-008-011-012-014-VTZ005-008-040000-
NORTHERN NEW ENGLAND

CITY           SKY/WX    TMP DP  RH WIND       PRES   REMARKS
PORTLAND ME    PTCLDY    77  67  71 CALM      29.87R
BANGOR ME      PTCLDY    78  56  46 N7        29.88R
CONCORD NH     MOCLDY    78  70  76 CALM      29.87R
MANCHESTER NH  MOCLDY    82  67  60 E10       29.85R
NASHUA NH      CLOUDY    81  69  67 E8        29.86R
PORTSMOUTH NH  MOCLDY    76  66  71 S5        29.85R
JAFFREY NH     CLOUDY    75  72  90 CALM      29.91R
KEENE NH       CLOUDY    77  70  78 CALM      29.88S
BURLINGTON VT  MOCLDY    78  60  53 N8        29.94R
MT. WASHINGTON FOG       54  54 100 NW14        N/A  VSB 1/16
$$

NYZ052-076-040000-
EASTERN NEW YORK

CITY           SKY/WX    TMP DP  RH WIND       PRES   REMARKS
ALBANY         MOCLDY    76  68  76 NE3       29.88R
NEW YORK CITY  MOCLDY    89  63  41 SE6       29.82R HX  90
$$

ANZALL-040000-
MARINE OBSERVATIONS

STATION/POSITION TIME  TEMP    WIND        PRES    VSBY  WAVE
                       AIR SEA DIR/SP/G                  HT/PER
                 (UTC) (F)     (DEG/KT/KT) (MB)    (MI)  (FT/S)
BOSTON BUOY      2250   71 72  150/  6/  6 1011.1S         1
BUZZARDS BAY     2200             CALM     1011.9R
NANTUCKET SOUND  2250   74 74  240/  6/  8 1010.8R         1
MASS BAY-STELLWA 2204   72 69  150/  6/  6   N/A    1 7/8  0
ISLE OF SHOALS   2300   72      CALM  /  1 1010.9R
S OF BLOCK IS    2208      73                N/A           1/ 7
$$

......................KEY.........................
  SKY/WX - SKY CONDITION/PRESENT WEATHER
  TMP    - TEMPERATURE IN FAHRENHEIT
  DWPT   - DEWPOINT IN FAHRENHEIT
  RH     - RELATIVE HUMIDITY IN PERCENT
  WIND   - DIRECTION AND SPEED IN MPH
  PRES   - MEAN SEA LEVEL PRESSURE IN INCHES OF HG
  WCI    - WIND CHILL INDEX
  VSB    - VISIBILITY IN MILES
  HX     - HEAT INDEX
  TC     - TEMPERATURE IN CELSIUS
  VRB    - VARIABLE WIND DIRECTION
  N/A    - NOT AVAILABLE



USA.gov is the U.S. government's official web portal to all federal, state and local government web resources and services.